New Bern, NC

5:45 AM EST on December 10, 2019 (GMT -0500)
Craven County Regional

Weather History for KEWN - August, 2019

Change the Weather History Date:

Friday, August 30, 2019

  Actual Average Record
Temperature  
Mean Temperature 76 °F 78 °F  
Max Temperature 89 °F 86 °F 95 °F (1956)
Min Temperature 64 °F 69 °F 50 °F (1965)
Degree Days  
Heating Degree Days 0 0  
Month to date heating degree days 0 0  
Since 1 June heating degree days 0 1  
Since 1 July heating degree days 0 0  
Cooling Degree Days 12 13  
Month to date cooling degree days 455 426  
Year to date cooling degree days 1774 1516  
Since 1 June cooling degree days 1355 1273  
Growing Degree Days 26 (Base 50)    
Moisture  
Dew Point 67 °F    
Average Humidity 82    
Maximum Humidity 100    
Minimum Humidity 46    
Precipitation  
Precipitation 0.00 in 0.19 in 4.02 in (1954)
Month to date precipitation 5.50 6.46  
Year to date precipitation 28.44 36.61  
Snow  
Snow 0.00 in - - ()
Month to date snowfall 0.0  
Since 1 July snowfall 0.0  
Snow Depth 0.00 in    
Sea Level Pressure  
Sea Level Pressure 30.10 in    
Wind  
Wind Speed 1 mph ()    
Max Wind Speed 10 mph    
Max Gust Speed 13 mph    
Visibility 7.5 miles    
Events Fog    
T = Trace of Precipitation, MM = Missing Value Source: Averaged Metar Reports

Daily Weather History Graph

Daily Weather History Graph

Search for Another Location

Airport or City:

Astronomy

Aug. 30, 2019 Rise Set
Actual Time 6:39 AM EDT 7:37 PM EDT
Civil Twilight 6:13 AM EDT 8:03 PM EDT
Nautical Twilight 5:42 AM EDT 8:34 PM EDT
Astronomical Twilight 5:10 AM EDT 9:06 PM EDT
Moon 6:39 AM EDT (8/30) 8:12 PM EDT (8/30)
Length of Visible Light 13h 50m
Length of Day
12h 58m
New Moon, 0% of the Moon is Illuminated
Aug 30
New Moon
Sep 5
First Quarter
Sep 14
Full
Sep 21
Last Quarter
Sep 28
New

Hourly Weather History & Observations

Time (EDT) Temp. Heat Index Dew Point Humidity Pressure Visibility Wind Dir Wind Speed Gust Speed Precip Events Conditions
12:54 AM 70.0 °F - 69.1 °F 97% 30.09 in 10.0 mi Calm Calm - N/A   Clear
1:54 AM 69.1 °F - 68.0 °F 96% 30.08 in 10.0 mi Calm Calm - N/A   Clear
2:54 AM 69.1 °F - 68.0 °F 96% 30.07 in 10.0 mi Calm Calm - N/A   Clear
3:54 AM 68.0 °F - 68.0 °F 100% 30.06 in 10.0 mi Calm Calm - N/A   Clear
4:32 AM 66.0 °F - 66.0 °F 100% 30.07 in 6.0 mi Calm Calm - N/A   Scattered Clouds
4:54 AM 66.9 °F - 66.9 °F 100% 30.07 in 6.0 mi Calm Calm - N/A   Overcast
5:00 AM 64.9 °F - 64.9 °F 100% 30.07 in 0.8 mi Calm Calm - N/A   Mist
5:07 AM 64.9 °F - 64.9 °F 100% 30.07 in 0.2 mi Calm Calm - N/A Fog Fog
5:14 AM 66.0 °F - 66.0 °F 100% 30.08 in 1.0 mi Calm Calm - N/A   Mist
5:25 AM 64.9 °F - 64.9 °F 100% 30.08 in 0.5 mi Calm Calm - N/A Fog Fog
5:37 AM 66.0 °F - 66.0 °F 100% 30.08 in 1.0 mi Calm Calm - N/A   Mist
5:43 AM 66.0 °F - 66.0 °F 100% 30.08 in 0.5 mi Calm Calm - N/A Fog Fog
5:54 AM 66.0 °F - 66.0 °F 100% 30.08 in 7.0 mi Calm Calm - N/A Fog Shallow Fog
6:12 AM 66.9 °F - 66.9 °F 100% 30.09 in 1.8 mi Calm Calm - N/A Fog Shallow Fog
6:21 AM 66.9 °F - 66.9 °F 100% 30.09 in 7.0 mi Calm Calm - N/A Fog Shallow Fog
6:54 AM 66.0 °F - 66.0 °F 100% 30.10 in 7.0 mi Calm Calm - N/A Fog Shallow Fog
7:54 AM 71.1 °F - 70.0 °F 96% 30.12 in 10.0 mi Calm Calm - N/A Fog Shallow Fog
8:54 AM 78.1 °F - 73.0 °F 84% 30.13 in 10.0 mi Calm Calm - N/A Fog Shallow Fog
9:54 AM 82.0 °F 85.9 °F 70.0 °F 67% 30.13 in 10.0 mi Calm Calm - N/A   Clear
10:54 AM 82.9 °F 86.5 °F 69.1 °F 63% 30.13 in 10.0 mi West 5.8 mph - N/A   Mostly Cloudy
11:54 AM 84.9 °F 86.6 °F 64.9 °F 51% 30.13 in 10.0 mi Calm Calm - N/A   Clear
12:54 PM 86.0 °F 88.2 °F 66.0 °F 51% 30.12 in 10.0 mi NNW 4.6 mph - N/A   Partly Cloudy
1:54 PM 87.1 °F 88.9 °F 64.9 °F 48% 30.12 in 10.0 mi Variable 4.6 mph - N/A   Partly Cloudy
2:54 PM 86.0 °F 87.6 °F 64.9 °F 49% 30.10 in 10.0 mi North - - N/A   Mostly Cloudy
3:54 PM 88.0 °F 89.6 °F 64.9 °F 46% 30.08 in 10.0 mi Calm Calm - N/A   Partly Cloudy
4:54 PM 88.0 °F 90.3 °F 66.0 °F 48% 30.08 in 10.0 mi East 3.5 mph - N/A   Partly Cloudy
5:54 PM 87.1 °F 88.9 °F 64.9 °F 48% 30.08 in 10.0 mi Calm Calm - N/A   Clear
6:54 PM 82.9 °F 85.8 °F 68.0 °F 60% 30.10 in 10.0 mi South 6.9 mph - N/A   Mostly Cloudy
7:54 PM 78.1 °F - 66.9 °F 68% 30.12 in 10.0 mi South 4.6 mph - N/A   Clear
8:54 PM 75.0 °F - 66.9 °F 76% 30.12 in 10.0 mi Calm Calm - N/A   Clear
9:54 PM 71.1 °F - 66.9 °F 87% 30.14 in 10.0 mi Calm Calm - N/A   Clear
10:54 PM 69.1 °F - 66.9 °F 93% 30.15 in 10.0 mi Calm Calm - N/A   Clear
11:54 PM 66.9 °F - 66.0 °F 97% 30.16 in 10.0 mi Calm Calm - N/A   Clear